Date String (YYYY-MM-DD hh:mm:ss) UTC,Instrument flags,absolute air pressure of the measurement (hPa),sample flow rate (lpm),inlet stack bypass flow (lpm),air temperature of the measurement (°C),ambient temperature measured by the external sensor (°C),aerosol sample conditioner tube jacket temperature (°C),OPC LED temperature (°C),internal box temperature (°C),relative humidity of the measurement (%),span deviation,mass concentration of particles derived from Lorenz-Mie calculation of OPC scattering (μg/m³),mass concentration of particles derived from Lorenz-Mie calculation of OPC scattering (μg/m³),mass concentration of particles derived from Lorenz-Mie calculation of OPC scattering (μg/m³)
DateTimeUTC,F1_M11,P_M11,Q1_M11,Q2_M11,T1_M11,T2_M11,T3_M11,T4_M11,T5_M11,U1_M11,ZSPAN_M11,X0_M11,X2_M11,X1_M11
2023-10-03 09:00:00,SystemResetWarning,0826.7,5.00,000.00,028.6,027.1,000.0,037.2,030.4,26.8,0000.0,0007.40,0003.97,0003.32
2023-10-03 09:01:00,SystemResetWarning,0826.6,5.00,000.00,028.7,027.2,000.0,037.2,030.4,26.7,0000.0,0007.96,0003.92,0003.32
2023-10-03 09:02:00,SystemResetWarning,0826.6,5.00,000.00,028.7,027.3,000.0,037.2,030.4,26.4,0000.0,0007.85,0003.87,0003.32
2023-10-03 09:03:00,SystemResetWarning,0826.6,5.00,000.00,028.7,027.3,000.0,037.2,030.5,26.1,0000.0,0007.80,0003.83,0003.31
2023-10-03 09:04:00,SystemResetWarning,0826.6,5.00,000.00,028.7,027.4,000.0,037.2,030.5,25.9,0000.0,0007.86,0003.80,0003.31
2023-10-03 09:05:00,SystemResetWarning,0826.6,5.00,000.00,028.7,027.5,000.0,037.2,030.5,25.6,0000.0,0007.96,0003.83,0003.31
2023-10-03 09:06:00,SystemResetWarning,0826.6,5.00,000.00,028.8,027.5,000.0,037.2,030.5,25.7,0000.0,0008.00,0003.87,0003.32
2023-10-03 09:07:00,SystemResetWarning,0826.6,5.01,000.00,028.8,027.5,000.0,037.2,030.5,26.0,0000.0,0008.29,0003.90,0003.34
2023-10-03 09:08:00,SystemResetWarning,0826.6,5.01,000.00,028.8,027.6,000.0,037.2,030.6,26.3,0000.0,0008.47,0003.93,0003.35
2023-10-03 09:09:00,SystemResetWarning,0826.6,5.00,000.00,028.8,027.6,000.0,037.2,030.6,26.2,0000.0,0008.49,0003.96,0003.35
2023-10-03 09:10:00,SystemResetWarning,0826.6,5.00,000.00,028.8,027.6,000.0,037.2,030.6,25.8,0000.0,0008.51,0003.98,0003.36
2023-10-03 09:11:00,SystemResetWarning,0826.6,5.00,000.00,028.8,027.7,000.0,037.2,030.6,25.8,0000.0,0008.37,0003.98,0003.37
2023-10-03 09:12:00,SystemResetWarning,0826.6,5.00,000.00,028.9,027.7,000.0,037.2,030.6,26.1,0000.0,0007.60,0003.97,0003.37
2023-10-03 09:13:00,SystemResetWarning,0826.6,5.00,000.00,028.9,027.7,000.0,037.3,030.7,26.2,0000.0,0007.70,0003.99,0003.38
2023-10-03 09:14:00,SystemResetWarning,0826.6,5.01,000.00,028.9,027.7,000.0,037.3,030.7,25.9,0000.0,0007.79,0004.02,0003.38
2023-10-03 09:15:00,SystemResetWarning,0826.6,5.01,000.00,028.9,027.7,000.0,037.3,030.7,25.9,0000.0,0007.93,0004.05,0003.38
2023-10-03 09:16:00,SystemResetWarning,0826.5,5.00,000.00,028.9,027.8,000.0,037.3,030.7,25.9,0000.0,0007.84,0004.03,0003.37
2023-10-03 09:17:00,SystemResetWarning,0826.4,5.00,000.00,029.0,027.8,000.0,037.3,030.7,26.3,0000.0,0007.79,0004.01,0003.37
2023-10-03 09:18:00,SystemResetWarning,0826.4,5.00,000.00,029.0,027.8,000.0,037.3,030.7,26.4,0000.0,0007.49,0003.98,0003.37
2023-10-03 09:19:00,SystemResetWarning,0826.4,5.00,000.00,029.0,027.8,000.0,037.3,030.7,26.3,0000.0,0007.35,0003.96,0003.37
2023-10-03 09:20:00,SystemResetWarning,0826.4,5.00,000.00,029.0,027.8,000.0,037.4,030.8,26.3,0000.0,0007.38,0003.96,0003.38
2023-10-03 09:21:00,SystemResetWarning,0826.4,4.99,000.00,029.0,027.8,000.0,037.4,030.8,26.3,0000.0,0007.40,0003.95,0003.38
2023-10-03 09:22:00,SystemResetWarning,0826.4,4.99,000.00,029.0,027.8,000.0,037.4,030.8,26.3,0000.0,0007.39,0003.96,0003.39
2023-10-03 09:23:00,SystemResetWarning,0826.4,5.02,000.00,029.0,027.9,000.0,037.4,030.8,26.3,0000.0,0007.40,0003.96,0003.39
2023-10-03 09:24:00,SystemResetWarning,0826.4,5.02,000.00,029.1,027.9,000.0,037.4,030.8,26.3,0000.0,0008.21,0003.95,0003.38
2023-10-03 09:25:00,SystemResetWarning,0826.4,4.99,000.00,029.1,027.9,000.0,037.5,030.8,26.2,0000.0,0008.32,0003.94,0003.37
2023-10-03 09:26:00,SystemResetWarning,0826.4,5.00,000.00,029.1,027.9,000.0,037.5,030.8,26.2,0000.0,0008.14,0003.92,0003.40
2023-10-03 09:27:00,SystemResetWarning,0826.4,5.00,000.00,029.1,027.9,000.0,037.5,030.8,26.2,0000.0,0008.36,0003.93,0003.43
2023-10-03 09:28:00,SystemResetWarning,0826.4,5.00,000.00,029.1,027.9,000.0,037.5,030.9,26.2,0000.0,0008.43,0003.96,0003.45
2023-10-03 09:29:00,SystemResetWarning,0826.4,5.00,000.00,029.1,027.9,000.0,037.5,030.9,26.4,0000.0,0008.38,0003.96,0003.47
2023-10-03 09:30:00,SystemResetWarning,0826.4,5.00,000.00,029.1,027.9,000.0,037.5,030.9,26.5,0000.0,0008.74,0003.98,0003.48
2023-10-03 09:31:00,SystemResetWarning,0826.3,5.00,000.00,029.2,027.9,000.0,037.5,030.9,26.7,0000.0,0009.12,0003.98,0003.50
2023-10-03 09:32:00,SystemResetWarning,0826.3,5.00,000.00,029.2,028.0,000.0,037.6,030.9,26.7,0000.0,0009.18,0003.99,0003.51
2023-10-03 09:33:00,SystemResetWarning,0826.3,5.00,000.00,029.2,028.0,000.0,037.6,030.9,26.6,0000.0,0009.61,0004.04,0003.52
2023-10-03 09:34:00,SystemResetWarning,0826.2,5.00,000.00,029.2,028.0,000.0,037.6,030.9,26.7,0000.0,0009.75,0004.07,0003.52
2023-10-03 09:35:00,SystemResetWarning,0826.2,4.99,000.00,029.2,028.0,000.0,037.6,030.9,26.7,0000.0,0009.47,0004.10,0003.53
2023-10-03 09:36:00,SystemResetWarning,0826.2,5.00,000.00,029.2,028.0,000.0,037.6,030.9,26.6,0000.0,0009.15,0004.11,0003.54
2023-10-03 09:37:00,SystemResetWarning,0826.2,5.00,000.00,029.2,028.0,000.0,037.6,031.0,26.5,0000.0,0009.81,0004.12,0003.54
2023-10-03 09:38:00,SystemResetWarning,0826.3,5.01,000.00,029.2,028.0,000.0,037.6,031.0,26.5,0000.0,0009.64,0004.11,0003.52
2023-10-03 09:39:00,SystemResetWarning,0826.3,5.01,000.00,029.3,028.0,000.0,037.6,031.0,26.5,0000.0,0009.35,0004.06,0003.49
2023-10-03 09:40:00,SystemResetWarning,0826.3,5.00,000.00,029.3,028.0,000.0,037.7,031.0,26.5,0000.0,0009.36,0004.05,0003.46
2023-10-03 09:41:00,SystemResetWarning,0826.2,5.00,000.00,029.3,028.0,000.0,037.7,031.0,26.6,0000.0,0009.20,0004.03,0003.42
2023-10-03 09:42:00,SystemResetWarning,0826.2,4.99,000.00,029.3,028.0,000.0,037.7,031.0,26.6,0000.0,0008.65,0003.98,0003.38
2023-10-03 09:43:00,SystemResetWarning,0826.2,4.99,000.00,029.3,028.0,000.0,037.7,031.0,26.4,0000.0,0008.58,0003.94,0003.34
2023-10-03 09:44:00,SystemResetWarning,0826.2,5.01,000.00,029.3,028.0,000.0,037.7,031.0,26.3,0000.0,0008.03,0003.86,0003.32
2023-10-03 09:45:00,SystemResetWarning,0826.2,5.01,000.00,029.3,028.0,000.0,037.7,031.0,26.2,0000.0,0007.95,0003.84,0003.32
2023-10-03 09:46:00,SystemResetWarning,0826.2,5.01,000.00,029.3,028.1,000.0,037.7,031.0,26.1,0000.0,0007.77,0003.82,0003.31
2023-10-03 09:47:00,SystemResetWarning,0826.2,4.99,000.00,029.3,028.1,000.0,037.7,031.1,26.0,0000.0,0007.88,0003.80,0003.29
2023-10-03 09:48:00,SystemResetWarning,0826.2,4.99,000.00,029.3,028.1,000.0,037.8,031.0,26.0,0000.0,0007.06,0003.76,0003.29
2023-10-03 09:49:00,SystemResetWarning,0826.2,5.00,000.00,029.3,028.1,000.0,037.8,031.0,25.9,0000.0,0006.87,0003.75,0003.28
2023-10-03 09:50:00,SystemResetWarning,0826.2,5.01,000.00,029.4,028.1,000.0,037.8,031.1,26.0,0000.0,0006.96,0003.76,0003.30
2023-10-03 09:51:00,SystemResetWarning,0826.2,5.01,000.00,029.4,028.1,000.0,037.8,031.1,26.1,0000.0,0007.17,0003.78,0003.31
2023-10-03 09:52:00,SystemResetWarning,0826.3,4.99,000.00,029.4,028.1,000.0,037.8,031.1,26.2,0000.0,0007.12,0003.81,0003.35
2023-10-03 09:53:00,SystemResetWarning,0826.2,4.99,000.00,029.4,028.1,000.0,037.8,031.1,26.4,0000.0,0006.95,0003.84,0003.38
2023-10-03 09:54:00,SystemResetWarning,0826.2,5.02,000.00,029.4,028.1,000.0,037.8,031.1,26.4,0000.0,0007.23,0003.90,0003.41
2023-10-03 09:55:00,SystemResetWarning,0826.2,5.01,000.00,029.4,028.1,000.0,037.8,031.1,26.1,0000.0,0007.34,0003.95,0003.43
2023-10-03 09:56:00,SystemResetWarning,0826.2,4.99,000.00,029.4,028.1,000.0,037.8,031.1,26.1,0000.0,0007.42,0003.97,0003.46
2023-10-03 09:57:00,SystemResetWarning,0826.2,4.99,000.00,029.4,028.1,000.0,037.8,031.1,26.1,0000.0,0007.46,0004.01,0003.47
2023-10-03 09:58:00,SystemResetWarning,0826.2,5.01,000.00,029.4,028.1,000.0,037.9,031.1,26.1,0000.0,0007.14,0004.05,0003.49
2023-10-03 09:59:00,SystemResetWarning,0826.2,5.01,000.00,029.4,028.1,000.0,037.9,031.1,26.3,0000.0,0007.14,0004.06,0003.50
